This is the latest recevied weather packets stored in our database for station/object KR4BRU. If no packets are shown the sender has not sent any weather packets the latest 10 day(s).
| Time | Temp. | Humidity | Pressure | Rain* | Wind** | Luminosity | Snow |
|---|---|---|---|---|---|---|---|
| 1777929954 | 26.67° C | 34% | 1009.2 hPa | 0 mm | - | 123 W/m² | - |
| 1777929354 | 26.67° C | 34% | 1009.2 hPa | 0 mm | - | 123 W/m² | - |
| 1777928754 | 26.67° C | 35% | 1009.2 hPa | 0 mm | - | 130 W/m² | - |
| 1777928154 | 26.67° C | 35% | 1009.3 hPa | 0 mm | - | 131 W/m² | - |
| 1777927550 | 27.78° C | 33% | 1009.3 hPa | 0 mm | - | 155 W/m² | - |
| 1777926946 | 26.67° C | 34% | 1009.6 hPa | 0 mm | - | 158 W/m² | - |
| 1777926344 | 26.67° C | 34% | 1009.6 hPa | 0 mm | - | 149 W/m² | - |
| 1777925739 | 27.22° C | 32% | 1009.6 hPa | 0 mm | - | 151 W/m² | - |
| 1777925138 | 26.67° C | 34% | 1009.7 hPa | 0 mm | - | 350 W/m² | - |
| 1777924538 | 27.22° C | 33% | 1010 hPa | 0 mm | - | 666 W/m² | - |
| 1777923937 | 27.22° C | 32% | 1010 hPa | 0 mm | - | 650 W/m² | - |
| 1777923335 | 27.78° C | 32% | 1010.4 hPa | 0 mm | - | 740 W/m² | - |
| 1777922731 | 27.78° C | 31% | 1010.3 hPa | 0 mm | - | 760 W/m² | - |
| 1777922127 | 27.22° C | 31% | 1010.8 hPa | 0 mm | - | 797 W/m² | - |
| 1777921525 | 27.78° C | 31% | 1010.8 hPa | 0 mm | - | 754 W/m² | - |
| 1777920924 | 27.78° C | 31% | 1011.2 hPa | 0 mm | - | 762 W/m² | - |
| 1777920321 | 27.78° C | 31% | 1010.9 hPa | 0 mm | - | 892 W/m² | - |
| 1777919720 | 26.67° C | 32% | 1011 hPa | 0 mm | - | 746 W/m² | - |
| 1777919121 | 26.67° C | 33% | 1011.1 hPa | 0 mm | - | 1008 W/m² | - |
| 1777918515 | 26.67° C | 31% | 1011.3 hPa | 0 mm | - | 956 W/m² | - |
| 1777917912 | 26.67° C | 32% | 1011.4 hPa | 0 mm | - | 968 W/m² | - |
| 1777917307 | 26.11° C | 34% | 1011.5 hPa | 0 mm | - | 974 W/m² | - |
| 1777916702 | 26.67° C | 34% | 1011.6 hPa | 0 mm | - | 954 W/m² | - |
| 1777916101 | 25° C | 36% | 1011.8 hPa | 0 mm | - | 989 W/m² | - |
| 1777915500 | 26.11° C | 34% | 1012 hPa | 0 mm | - | 970 W/m² | - |
* Rain latest hour (hover to see other rain measurements)
** Current wind speed in m/s (hover to see current wind gust speed)